Wautoma, WI

11:00 AM CDT on March 25, 2017 (GMT -0500)
Wautoma

Weather History for KY50 - December, 2012

Change the Weather History Date:

Sunday, December 2, 2012

  Actual Average (KPCZ) Record (KPCZ)
Temperature  
Mean Temperature 42 °F -  
Max Temperature 48 °F 34 °F 63 °F (1962)
Min Temperature 37 °F 18 °F -9 °F (1976)
Degree Days  
Heating Degree Days 22    
Moisture  
Dew Point 41 °F    
Average Humidity 100    
Maximum Humidity 100    
Minimum Humidity 96    
Precipitation  
Precipitation 0.00 in - - ()
Sea Level Pressure  
Sea Level Pressure 29.96 in    
Wind  
Wind Speed 2 mph (WNW)    
Max Wind Speed 13 mph    
Max Gust Speed -    
Visibility 2 miles    
Events Fog    
Averages and records for this station are not official NWS values.
T = Trace of Precipitation, MM = Missing Value Source: NWS Daily Summary

Daily Weather History Graph

Daily Weather History Graph

Search for Another Location

Airport or City:

Trip Planner

Search our weather history database for the weather conditions in past years. The results will help you decide how hot, cold, wet, or windy it might be!

Date:

Astronomy

Dec. 02, 2012 Rise Set
Actual Time 7:13 AM CST 4:19 PM CST
Civil Twilight 6:41 AM CST 4:52 PM CST
Nautical Twilight 6:05 AM CST 5:28 PM CST
Astronomical Twilight 5:30 AM CST 6:03 PM CST
Moon 8:10 PM CST (12/2) 10:00 AM CST (12/2)
Length of Visible Light 10h 11m
Length of Day
9h 06m
Waning Gibbous, 85% of the Moon is Illuminated
Dec 2
Waning Gibbous
Dec 6
Last Quarter
Dec 13
New
Dec 19
First Quarter
Dec 28
Full

Hourly Weather History & Observations

Time (CST) Temp. Windchill Dew Point Humidity Pressure Visibility Wind Dir Wind Speed Gust Speed Precip Events Conditions
12:49 AM 46.4 °F - 46.4 °F 100% 29.81 in 0.2 mi Calm Calm - N/A Fog Fog
12:56 AM 47.8 °F - 47.8 °F 100% 29.82 in 0.5 mi Calm Calm - N/A Fog Fog
1:01 AM 48.2 °F - 48.2 °F 100% 29.81 in 1.0 mi Calm Calm - N/A   Overcast
1:04 AM 48.2 °F - 48.2 °F 100% 29.81 in 1.5 mi Calm Calm - N/A   Overcast
1:09 AM 48.2 °F - 48.2 °F 100% 29.82 in 2.0 mi West 3.5 mph - N/A   Overcast
1:45 AM 48.2 °F - 48.2 °F 100% 29.83 in 4.0 mi WNW 12.7 mph - N/A   Overcast
1:56 AM 48.9 °F - 48.9 °F 100% 29.83 in 4.0 mi WNW 10.4 mph - N/A   Overcast
2:17 AM 48.2 °F - 48.2 °F 100% 29.83 in 5.0 mi West 8.1 mph - N/A   Overcast
2:24 AM 48.2 °F - 48.2 °F 100% 29.83 in 5.0 mi West 6.9 mph - N/A   Overcast
2:56 AM 47.8 °F - - N/A% 29.84 in 4.0 mi Calm Calm - N/A   Haze
3:56 AM 46.9 °F - - N/A% 29.86 in 3.0 mi Calm Calm - N/A   Overcast
4:56 AM 45.9 °F 42.9 °F - N/A% 29.87 in 5.0 mi WNW 5.8 mph - N/A   Haze
5:29 AM 44.6 °F 40.7 °F - N/A% 29.88 in 4.0 mi NW 6.9 mph - N/A   Haze
5:56 AM 43.0 °F 40.3 °F - N/A% 29.89 in 5.0 mi WNW 4.6 mph - N/A   Haze
6:37 AM 42.8 °F - - N/A% 29.90 in 4.0 mi Calm Calm - N/A   Haze
6:56 AM 41.0 °F - - N/A% 29.93 in 4.0 mi Calm Calm - N/A   Haze
7:20 AM 42.8 °F - - N/A% 29.92 in 3.0 mi Calm Calm - N/A   Mostly Cloudy
7:27 AM 41.0 °F - - N/A% 29.93 in 2.0 mi Calm Calm - N/A   Scattered Clouds
7:42 AM 39.2 °F - - N/A% 29.93 in 1.5 mi Calm Calm - N/A   Mostly Cloudy
7:46 AM 39.2 °F - - N/A% 29.94 in 1.2 mi Calm Calm - N/A   Clear
7:56 AM 39.9 °F - - N/A% 29.95 in 1.5 mi Calm Calm - N/A   Clear
8:03 AM 39.2 °F - - N/A% 29.94 in 1.5 mi Calm Calm - N/A   Mostly Cloudy
8:17 AM 41.0 °F 39.0 °F - N/A% 29.96 in 1.8 mi NW 3.5 mph - N/A   Mostly Cloudy
8:27 AM 41.0 °F - - N/A% 29.96 in 2.0 mi Calm Calm - N/A   Mostly Cloudy
8:56 AM 41.9 °F 37.5 °F 41.9 °F 100% 29.98 in 2.0 mi WNW 6.9 mph - N/A   Overcast
10:12 AM 39.2 °F 33.6 °F 39.2 °F 100% 29.99 in 2.0 mi North 8.1 mph - N/A   Overcast
10:56 AM 39.9 °F 35.1 °F 39.9 °F 100% 30.01 in 2.0 mi WNW 6.9 mph - N/A   Overcast
11:56 AM 41.0 °F 36.4 °F 39.9 °F 96% 30.01 in 2.0 mi WNW 6.9 mph - N/A   Overcast
12:56 PM 41.0 °F - 39.9 °F 96% 30.01 in 2.0 mi Calm Calm - N/A   Overcast
1:56 PM 39.9 °F - 39.9 °F 100% 30.00 in 2.0 mi Calm Calm - N/A   Overcast
2:56 PM 41.0 °F - 39.9 °F 96% 30.00 in 2.0 mi Calm Calm - N/A   Overcast
3:38 PM 39.2 °F - 39.2 °F 100% 30.01 in 1.8 mi Calm Calm - N/A   Overcast
3:56 PM 39.9 °F - 39.9 °F 100% 30.04 in 2.0 mi Calm Calm - N/A   Overcast
4:06 PM 39.2 °F - 39.2 °F 100% 30.03 in 1.8 mi Calm Calm - N/A   Overcast
4:27 PM 39.2 °F - 39.2 °F 100% 30.03 in 2.5 mi Calm Calm - N/A   Overcast
4:39 PM 39.2 °F - 39.2 °F 100% 30.03 in 3.0 mi Calm Calm - N/A   Overcast
4:56 PM 39.9 °F - 39.9 °F 100% 30.05 in 2.5 mi Calm Calm - N/A   Overcast
5:56 PM 38.8 °F - 38.8 °F 100% 30.05 in 2.5 mi Calm Calm - N/A   Overcast
7:17 PM 37.4 °F 34.9 °F 37.4 °F 100% 30.04 in 1.8 mi SE 3.5 mph - N/A   Overcast
7:49 PM 37.4 °F 32.8 °F 37.4 °F 100% 30.04 in 2.0 mi ESE 5.8 mph - N/A   Overcast
7:56 PM 37.9 °F - 37.9 °F 100% 30.05 in 2.0 mi Calm Calm - N/A   Overcast
8:47 PM 39.2 °F 34.2 °F 39.2 °F 100% 30.03 in 1.8 mi SE 6.9 mph - N/A   Overcast
8:56 PM 38.8 °F 35.4 °F 38.8 °F 100% 30.05 in 1.8 mi SE 4.6 mph - N/A   Overcast
9:14 PM 39.2 °F - 39.2 °F 100% 30.04 in 1.5 mi Calm Calm - N/A   Overcast
9:24 PM 39.2 °F - 39.2 °F 100% 30.04 in 1.2 mi Calm Calm - N/A   Overcast
9:56 PM 38.8 °F - 38.8 °F 100% 30.06 in 1.0 mi Calm Calm - N/A   Overcast
10:14 PM 39.2 °F - 39.2 °F 100% 30.05 in 0.8 mi Calm Calm - N/A   Overcast
10:23 PM 39.2 °F - 39.2 °F 100% 30.04 in 0.5 mi Calm Calm - N/A Fog Fog
10:38 PM 39.2 °F - 39.2 °F 100% 30.04 in 0.2 mi Calm Calm - N/A Fog Fog
10:56 PM 38.8 °F - 38.8 °F 100% 30.05 in 0.2 mi Calm Calm - N/A Fog Fog
11:26 PM 39.2 °F 37.0 °F 39.2 °F 100% 30.03 in 0.2 mi ESE 3.5 mph - N/A Fog Fog
11:56 PM 38.8 °F - 38.8 °F 100% 30.03 in 0.2 mi Calm Calm - N/A Fog Fog